Overview Statistics Trail Chart Weather Telemetry Raw packets
 

This is the latest recevied weather packets stored in our database for station/object K7FLA. If no packets are shown the sender has not sent any weather packets the latest 10 day(s).

<< 35 36 37 38 39 40 41 >>
Time Temp. Humidity Pressure Rain* Wind** Luminosity Snow
1788435149 13.89° C 63% 1095.5 hPa 0 mm - 0 W/m² -
1788434854 14.44° C 63% 1095.6 hPa 0 mm - 0 W/m² -
1788434540 14.44° C 63% 1095.6 hPa 0 mm - 0 W/m² -
1788434233 13.89° C 61% 1095.5 hPa 0 mm - 0 W/m² -
1788433929 14.44° C 56% 1095.7 hPa 0 mm - 0 W/m² -
1788433624 14.44° C 54% 1095.9 hPa 0 mm - 0 W/m² -
1788433320 14.44° C 55% 1095.9 hPa 0 mm - 0 W/m² -
1788433019 14.44° C 57% 1095.9 hPa 0 mm - 0 W/m² -
1788432714 13.89° C 58% 1095.9 hPa 0 mm - 0 W/m² -
1788432414 14.44° C 62% 1095.7 hPa 0 mm - 0 W/m² -
1788432109 14.44° C 61% 1095.9 hPa 0 mm - 0 W/m² -
1788431805 14.44° C 59% 1095.7 hPa 0 mm - 0 W/m² -
1788431501 14.44° C 59% 1095.7 hPa 0 mm - 0 W/m² -
1788431196 14.44° C 60% 1095.9 hPa 0 mm - 0 W/m² -
1788430896 14.44° C 60% 1096.2 hPa 0 mm - 0 W/m² -
1788430595 14.44° C 61% 1096 hPa 0 mm - 0 W/m² -
1788430291 14.44° C 60% 1096 hPa 0 mm - 0 W/m² -
1788429991 14.44° C 59% 1096.1 hPa 0 mm - 0 W/m² -
1788429691 14.44° C 60% 1096 hPa 0 mm - 0 W/m² -
1788429388 14.44° C 59% 1095.9 hPa 0 mm - 0 W/m² -
1788429088 14.44° C 58% 1096.1 hPa 0 mm - 0 W/m² -
1788428783 15° C 57% 1096.1 hPa 0 mm - 0 W/m² -
1788428479 15° C 57% 1096.2 hPa 0 mm - 0 W/m² -
1788428174 15° C 57% 1096 hPa 0 mm - 0 W/m² -
1788427869 15.56° C 57% 1096.2 hPa 0 mm - 0 W/m² -

* Rain latest hour (hover to see other rain measurements)
** Current wind speed in m/s (hover to see current wind gust speed)